EGYPTSAT-A (MISRSAT-A) (44047 NORAD) Tracking and Keplerian Element Data

This shows tracking and keplerian element data for the satellite.

Feedback or suggestion? Click here.




ElementValue
Catalog44047
NameEGYPTSAT-A (MISRSAT-A)
Epoch Orbit408
Epoch Day80.42481006
Epoch Year2019
RAAN146.2349
Inclination98.0125
Eccentricity0.0001405
Argument of Perigee61.0831
Mean Anonmoly299.0519
Mean Motion14.72303853
Decay Rate2.9E-07
L11 44047U 19008A 19080.42481006 .00000029 00000-0 12416-4 0 9999
L22 44047 98.0125 146.2349 0001405 61.0831 299.0519 14.72303853 4087

Live tracking and technical data element details for EGYPTSAT-A (MISRSAT-A) (NORAD 44047). EGYPTSAT-A (MISRSAT-A) can be tracked NOW for your location showing map with azimuth and elevation plus other details from your city location.

Track the satellite on the map from your city or location and see movement details for azimuth, elevation, latitude, longitude, range, height, and movement on the map or in text.







IsCatalogInMostPopularTable: catalog: 44047, numindb: 15
Update: records affected: 1



GetName: 44047 EGYPTSAT-A (MISRSAT-A)

Hit Count: updated at: Sat, 23 Mar 2019 00:12:53 GMT